Other Surface Observations
Issued by NWS

Home | Current Version | Previous Version | Text Only | Print | Product List | Glossary On
Versions: 1 2 3 4 5 6 7 8 9 10 11 12 13 14 15 16 17 18 19 20 21 22 23 24 25 26 27 28 29 30 31 32 33 34 35 36 37 38 39 40 41 42 43 44 45 46 47 48 49 50
000
SXUS52 KTAE 222018
OSOTAE
OSOTAE
North Florida/South Alabama/Southwest Georgia Weather Roundup
National Weather Service Tallahassee Florida
400 PM EDT TUE JUL 22 2014

Note: "fair" indicates few or no clouds below 12,000 feet with no
significant weather and/or obstructions to visibility.

!FLZ017-115-028-034-025-222100
...North Florida...

CITY           SKY/WX    TMP DP  RH WIND       PRES   REMARKS
TALLAHASSEE    PTSUNNY   90  66  45 S6        30.03F HX  92
APALACHICOLA   SUNNY     87  71  58 S10       30.04F HX  93
PERRY          MOSUNNY   86  70  58 SW5       30.04F HX  90
CROSS CITY       N/A     85  74  69 W8        30.04S HX  92
HOMERVILLE     FAIR      90  73  58 NW8       30.05F HX  98
JACKSONVILLE   PTSUNNY   84  72  67 E13       30.03F THUNDER
$$

!FLZ112-006-005-002-011-222100
...Florida Panhandle...

CITY           SKY/WX    TMP DP  RH WIND       PRES   REMARKS
MARIANNA       SUNNY     90  71  53 VRB5      30.02F HX  96
BONIFAY        FAIR      84  73  69 VRB5      30.04F HX  90
PANAMA CITY NW FAIR      84  73  70 S12       30.03F HX  91
TYNDALL AFB    MOSUNNY   84  75  74 S7        30.05S HX  92
TYND DRONE APT FAIR      85  76  72 S8G16     30.03F HX  95
DE FUNIAK SPR  FAIR      73  70  91 CALM      30.05F
EGLIN AFB      PTSUNNY   86  75  70 S10       30.04F HX  94
DESTIN         MOSUNNY   86  76  71 SE9       30.04F HX  96
HURLBURT       MOSUNNY   84  73  70 S7        30.03F HX  91
CRESTVIEW      PTSUNNY   77  73  87 NE3       30.07S
PENSACOLA      MOSUNNY   84  73  69 SE14      30.02F HX  90
$$

!ALZ063-066-222100
...South Alabama...

CITY           SKY/WX    TMP DP  RH WIND       PRES   REMARKS
DOTHAN         MOSUNNY   85  72  65 E3        30.09F HX  91
OZARK CAIRNS   PTSUNNY   77  73  88 S7        30.05F
FT RUCKER HELI PTSUNNY   80  72  76 S9        30.04S
RUCKER HELI 3  PTSUNNY   80  71  74 SE10      30.08S
RUCKER HELI 2  FAIR      83  73  72 S5        30.05F
FLORALA APT    CLOUDY    85  73  67 VRB6      30.06F HX  91
ANDALUSIA      CLOUDY    84  71  65 VRB3      30.05S
TROY           PTSUNNY   87  69  54 E6        30.05F HX  91
EUFALA         NOT AVBL
MOBILE         CLOUDY    73  71  93 NE8       30.03F
$$

!GAZ120>161-222100
...Southwest and South Central Georgia...

CITY           SKY/WX    TMP DP  RH WIND       PRES   REMARKS
THOMASVILLE    FAIR      88  70  55 W3        30.05F HX  92
BAINBRIDGE     SUNNY     91  73  55 N5        30.03F HX 100
MOODY AFB      PTSUNNY   85  77  77 E3        30.04F HX  95
VALDOSTA       SUNNY     93  71  48 NE6       30.04F HX 100
MOULTRIE       MOSUNNY   86  70  58 S3        30.05F HX  90
BLAKELY        PTSUNNY   84  73  70 W3        30.05F HX  91
ALBANY         PTSUNNY   85  69  58 CALM      30.07F
TIFTON         FAIR      84  69  59 S5        30.05F
FITZGERALD     MOCLDY    88  69  54 S5        30.08F HX  92
CORDELE        CLOUDY    87  68  53 S7        30.06F HX  90
AMERICUS       FAIR      82  68  61 CALM      30.08F
$$

!GMZ750-755-770-775-222100
...Coastal and Buoy Obs...

STATION/POSITION TIME  TEMP    WIND        PRES    VSBY  WAVE
                       AIR SEA DIR/SP/G                  HT/PER
                 (UTC) (F)     (DEG/KT/KT) (MB)    (MI)  (FT/S)
KEATON BEACH     2000   82     230/  8/  9 1017.4F
CEDAR KEY        2000   84     250/  6/  9 1017.8F
C TOWER          2000   83     220/  1/  2 1017.3F
APALACHICOLA BUO 2000   84 89  250/  4/  8 1017.7F         1/ 8
PANAMA CITY BUOY 1852   83 84  200/  6/  6 1017.2          1/ 4
MOBILE BUOY      1949   83 86  160/  8/ 10 1016.7F
ORANGE BCH AL BU 2000   83 84  210/ 10/ 12 1016.6F         1/ 4
$$



USA.gov is the U.S. government's official web portal to all federal, state and local government web resources and services.